Weather reports worldwide

Advertisment
Idar-Oberstein, Germany (10618): temperature & dewpoint: 10.09.2019 17:00:00 - 16.09.2019 17:00:00 (CEST)Idar-Oberstein, Germany (10618): wind speed: 10.09.2019 17:00:00 - 16.09.2019 17:00:00 (CEST)Idar-Oberstein, Germany (10618): wind direction: 10.09.2019 17:00:00 - 16.09.2019 17:00:00 (CEST)Idar-Oberstein, Germany (10618): reduced air pressure: 10.09.2019 17:00:00 - 16.09.2019 17:00:00 (CEST)Idar-Oberstein, Germany (10618): visibility: 10.09.2019 17:00:00 - 16.09.2019 17:00:00 (CEST)
Date & Time tt [°C] td [°C] ff [km/h] ff [kn] dd ppp [hPa] vv [km]
16.09.2019 17:00:00 22,0 7,7 7 4 WNW 1018,0 40
16.09.2019 16:00:00 23,3 8,2 11 6 WNW 1017,9 40
16.09.2019 15:00:00 24,0 7,7 7 4 WNW 1018,0 40
16.09.2019 14:00:00 22,6 7,3 11 6 SW 1018,6 40
16.09.2019 13:00:00 21,9 7,6 11 6 SSW 1019,2 40
16.09.2019 12:00:00 21,0 7,4 7 4 N 1019,8 40
16.09.2019 11:00:00 17,2 10,4 0 0 N 1020,7 40
16.09.2019 10:00:00 13,2 8,9 4 2 N 1021,6 40
16.09.2019 09:00:00 10,2 8,1 4 2 WSW 1021,9 40
16.09.2019 08:00:00 7,7 6,5 4 2 N 1022,5 40
16.09.2019 07:00:00 7,8 6,7 4 2 N 1022,6 35
16.09.2019 06:00:00 8,0 6,9 4 2 N 1022,7 35
16.09.2019 05:00:00 8,1 6,9 4 2 SW 1022,9 35
16.09.2019 04:00:00 8,9 7,3 4 2 WSW 1023,2 35
16.09.2019 03:00:00 9,5 7,8 7 4 SW 1023,2 35
16.09.2019 02:00:00 10,5 7,9 4 2 N 1023,1 40
16.09.2019 01:00:00 11,6 8,5 4 2 SW 1023,2 40
16.09.2019 00:00:00 12,6 9,1 4 2 N 1023,2 40
15.09.2019 23:00:00 14,4 9,9 4 2 S 1022,9 50
15.09.2019 22:00:00 15,3 9,9 4 2 N 1022,6 50
15.09.2019 21:00:00 17,2 10,0 7 4 SSE 1022,0 50
15.09.2019 20:00:00 20,2 9,6 4 2 N 1021,4 50
15.09.2019 19:00:00 24,0 9,0 7 4 W 1020,5 50
15.09.2019 18:00:00 25,2 7,0 7 4 WNW 1020,3 50
15.09.2019 17:00:00 26,4 5,2 11 6 W 1020,5 50
15.09.2019 16:00:00 26,1 10,5 14 8 WSW 1021,0 50
15.09.2019 15:00:00 25,6 10,3 11 6 SW 1021,8 50
15.09.2019 14:00:00 24,6 11,6 11 6 SW 1022,5 50
15.09.2019 13:00:00 23,3 11,7 7 4 SSW 1023,3 50
15.09.2019 12:00:00 22,2 11,7 4 2 N 1023,8 50
15.09.2019 11:00:00 19,7 12,3 4 2 N 1024,6 50
15.09.2019 10:00:00 13,1 9,7 4 2 WNW 1025,9 50
15.09.2019 09:00:00 9,3 8,1 7 4 SW 1026,7 50
15.09.2019 08:00:00 7,7 7,2 4 2 SW 1027,1 50
15.09.2019 07:00:00 7,5 7,0 7 4 SW 1026,9 20
15.09.2019 06:00:00 8,9 8,3 4 2 N 1026,8 20
15.09.2019 05:00:00 9,4 8,6 4 2 SSE 1027,0 20
15.09.2019 04:00:00 9,3 8,6 4 2 SSW 1027,5 20
15.09.2019 03:00:00 9,6 8,7 4 2 SSW 1027,9 15
15.09.2019 02:00:00 10,2 9,1 4 2 N 1028,4 25
15.09.2019 01:00:00 11,6 9,7 4 2 N 1028,4 25
15.09.2019 00:00:00 11,4 9,4 4 2 N 1028,7 35
14.09.2019 23:00:00 12,5 9,9 4 2 SSE 1028,8 35
14.09.2019 22:00:00 14,2 10,1 4 2 E 1029,2 35
14.09.2019 21:00:00 15,2 10,4 7 4 SE 1029,1 35
14.09.2019 20:00:00 17,6 10,0 4 2 N 1028,4 35
14.09.2019 19:00:00 20,7 9,2 7 4 ENE 1027,8 35
14.09.2019 18:00:00 21,7 9,0 7 4 ENE 1027,9 40
14.09.2019 17:00:00 21,7 9,4 7 4 E 1028,3 40
14.09.2019 16:00:00 21,8 9,8 7 4 NE 1028,7 40
14.09.2019 15:00:00 21,3 10,1 7 4 NE 1029,5 40
14.09.2019 14:00:00 20,8 10,8 7 4 ENE 1030,3 40
14.09.2019 13:00:00 19,5 12,0 11 6 NE 1031,0 40
14.09.2019 12:00:00 17,2 11,7 7 4 E 1032,0 40
14.09.2019 11:00:00 15,8 11,5 7 4 ENE 1032,5 40
14.09.2019 10:00:00 13,8 11,5 7 4 NE 1033,0 40
14.09.2019 09:00:00 11,8 11,5 4 2 NE 1033,5 20
14.09.2019 08:00:00 10,4 10,1 0 0 N 1033,9 0,2
14.09.2019 07:00:00 10,4 10,1 4 2 N 1033,1 0,2
14.09.2019 06:00:00 11,0 10,7 0 0 N 1033,2 0,5
14.09.2019 05:00:00 11,0 10,6 4 2 N 1033,3 1,5
14.09.2019 04:00:00 11,9 11,5 0 0 N 1033,5 8
14.09.2019 03:00:00 12,7 12,1 4 2 N 1033,5 20
14.09.2019 02:00:00 13,8 12,7 4 2 ENE 1033,5 20
14.09.2019 01:00:00 14,8 13,0 4 2 ENE 1033,3 20
14.09.2019 00:00:00 14,8 12,6 4 2 E 1033,3 25
13.09.2019 23:00:00 15,6 12,6 4 2 ENE 1033,2 30
13.09.2019 22:00:00 14,9 12,5 4 2 ESE 1033,2 30
13.09.2019 21:00:00 15,7 12,7 4 2 SE 1033,0 30
13.09.2019 20:00:00 17,6 12,6 4 2 E 1032,1 30
13.09.2019 19:00:00 19,0 13,9 7 4 NE 1031,9 30
13.09.2019 18:00:00 21,1 13,0 7 4 ENE 1031,1 40
13.09.2019 17:00:00 21,0 12,4 7 4 N 1031,2 40
13.09.2019 16:00:00 20,6 12,9 4 2 WNW 1031,6 40
13.09.2019 15:00:00 20,1 13,5 7 4 NNE 1031,8 40
13.09.2019 14:00:00 20,1 13,0 4 2 N 1031,9 40
13.09.2019 13:00:00 19,4 12,9 4 2 NNE 1032,0 40
13.09.2019 12:00:00 18,1 14,2 4 2 SW 1032,5 40
13.09.2019 11:00:00 17,1 14,1 4 2 W 1032,6 40
13.09.2019 10:00:00 15,9 13,9 4 2 NNW 1032,3 40
13.09.2019 09:00:00 14,7 13,5 4 2 N 1032,1 40
13.09.2019 08:00:00 14,4 13,2 4 2 N 1031,9 40
13.09.2019 07:00:00 12,3 11,7 4 2 S 1032,2 30
13.09.2019 06:00:00 12,7 12,2 4 2 N 1031,3 25
13.09.2019 05:00:00 13,0 12,2 4 2 N 1031,2 25
13.09.2019 04:00:00 11,7 10,9 4 2 N 1031,5 40
13.09.2019 03:00:00 13,2 12,2 7 4 SSE 1031,3 40
13.09.2019 02:00:00 12,6 11,6 4 2 N 1031,6 40
13.09.2019 01:00:00 14,5 12,9 4 2 N 1031,2 40
13.09.2019 00:00:00 15,1 12,7 4 2 N 1031,1 40
12.09.2019 23:00:00 15,2 12,7 11 6 SW 1031,3 40
12.09.2019 22:00:00 15,8 12,7 7 4 SW 1031,3 40
12.09.2019 21:00:00 16,6 12,6 7 4 SW 1030,9 40
12.09.2019 20:00:00 19,0 12,2 11 6 WSW 1030,0 40
12.09.2019 19:00:00 21,0 12,0 14 8 WSW 1029,3 40
12.09.2019 18:00:00 21,6 12,5 14 8 WSW 1029,1 40
12.09.2019 17:00:00 21,5 13,4 14 8 WSW 1029,4 40
12.09.2019 16:00:00 20,5 14,8 14 8 WSW 1029,9 40
12.09.2019 15:00:00 19,6 14,8 11 6 SW 1030,1 30
12.09.2019 14:00:00 18,9 14,8 14 8 SW 1030,3 20
12.09.2019 13:00:00 17,2 14,4 14 8 SW 1030,5 15
12.09.2019 12:00:00 16,9 14,2 14 8 SW 1030,6 15
12.09.2019 11:00:00 16,2 14,0 11 6 SW 1030,3 15
12.09.2019 10:00:00 15,5 13,6 11 6 SW 1029,7 10
12.09.2019 09:00:00 14,5 13,1 7 4 SW 1029,2 10
12.09.2019 08:00:00 14,3 12,5 7 4 SSW 1028,9 10
12.09.2019 07:00:00 14,1 12,0 11 6 SW 1028,3 20
12.09.2019 06:00:00 14,8 11,2 11 6 SW 1027,7 40
12.09.2019 05:00:00 15,3 9,5 7 4 N 1027,6 40
12.09.2019 04:00:00 15,6 8,7 7 4 SW 1027,4 40
12.09.2019 03:00:00 15,5 8,5 7 4 SW 1027,0 40
12.09.2019 02:00:00 15,6 8,4 7 4 SW 1026,9 40
12.09.2019 01:00:00 15,9 7,9 7 4 SSW 1026,6 40
12.09.2019 00:00:00 16,4 8,1 7 4 SW 1026,3 40
11.09.2019 23:00:00 15,9 8,2 7 4 SW 1026,0 40
11.09.2019 22:00:00 16,2 8,2 7 4 SW 1025,9 40
11.09.2019 21:00:00 16,4 7,9 7 4 SW 1025,2 35
11.09.2019 20:00:00 16,9 7,6 7 4 SW 1024,6 35
11.09.2019 19:00:00 17,3 8,0 11 6 WSW 1024,4 35
11.09.2019 18:00:00 17,9 7,4 11 6 WSW 1024,0 35
11.09.2019 17:00:00 18,4 7,1 11 6 WSW 1023,6 35
11.09.2019 16:00:00 18,1 6,7 14 8 SW 1023,7 35
11.09.2019 15:00:00 18,7 6,4 14 8 WSW 1023,4 35
11.09.2019 14:00:00 19,3 6,4 14 8 WSW 1023,1 40
11.09.2019 13:00:00 19,3 5,4 14 8 SW 1023,2 40
11.09.2019 12:00:00 18,7 5,9 11 6 SW 1023,4 40
11.09.2019 11:00:00 17,0 6,8 11 6 SW 1023,8 35
11.09.2019 10:00:00 10,6 7,0 4 2 W 1024,4 30
11.09.2019 09:00:00 6,1 4,6 4 2 WSW 1025,1 30
11.09.2019 08:00:00 4,7 4,0 4 2 WSW 1025,0 25
11.09.2019 07:00:00 3,9 3,3 4 2 WSW 1024,7 25
11.09.2019 06:00:00 4,4 3,8 7 4 SW 1024,0 20
11.09.2019 05:00:00 4,8 4,2 4 2 SW 1023,7 20
11.09.2019 04:00:00 5,1 4,3 4 2 SW 1023,6 30
11.09.2019 03:00:00 5,6 4,6 4 2 SW 1023,4 40
11.09.2019 02:00:00 6,4 5,1 4 2 SW 1023,0 40
11.09.2019 01:00:00 6,9 4,8 4 2 N 1023,1 40
11.09.2019 00:00:00 7,8 5,2 4 2 SW 1022,7 40
10.09.2019 23:00:00 8,6 5,1 4 2 S 1022,4 40
10.09.2019 22:00:00 10,2 5,0 7 4 N 1021,7 40
10.09.2019 21:00:00 11,7 5,7 11 6 SE 1020,7 40
10.09.2019 20:00:00 14,2 5,0 4 2 SE 1019,4 40
10.09.2019 19:00:00 17,8 3,5 4 2 NE 1018,3 40
10.09.2019 18:00:00 18,6 4,6 7 4 NE 1017,9 40
10.09.2019 17:00:00 18,4 4,2 7 4 NE 1017,7 40

tt = temperature
td = dewpoint
ff = wind speed
dd = wind direction
ppp = reduced air pressure
vv = visibility

Next stations